Simultaneous Nadir Overpasses (SNOs) Predictions

Prediction of SNOs between NOAA-20 and LANDSAT-8 Satellite Orbit:

Table of predicted SNOs for the next 14.0 days since TLE Epoch: 5/29/2021
Index Date (NOAA-20) Time (NOAA-20) Lat,Lon (NOAA-20) SZA (NOAA-20 ) Date (LANDSAT-8) Time (LANDSAT-8) Lat,Lon (LANDSAT-8) SZA (LANDSAT-8 ) Distance(km) Time Diff (sec)
1 05/29/2021 06:32:43 -70.12,-101.95 131.62 05/29/2021 06:33:24 -70.11,-101.95 131.63 1.28 41
2 05/29/2021 07:23:27 70.00, 65.55 48.26 05/29/2021 07:22:51 70.01, 65.55 48.27 1.31 36
3 05/31/2021 21:59:08 70.79,-154.57 48.71 05/31/2021 22:00:16 70.68,-152.86 48.55 63.99 68
4 05/31/2021 22:49:38 -70.07, 13.89 132.05 05/31/2021 22:49:55 -70.08, 13.88 132.05 0.55 17
5 05/31/2021 23:40:22 69.96,-178.62 47.83 05/31/2021 23:39:22 69.98,-178.62 47.85 2.19 60
6 06/03/2021 14:15:51 70.12, -37.74 47.67 06/03/2021 14:16:56 70.15, -37.77 47.69 3.21 65
7 06/03/2021 15:06:33 -70.03, 129.72 132.43 06/03/2021 15:06:26 -70.04, 129.71 132.42 1.43 7
8 06/03/2021 15:57:10 69.54, -62.25 47.07 06/03/2021 15:55:59 69.61, -63.25 47.16 39.31 71
9 06/06/2021 06:32:46 70.09, 78.08 47.34 06/06/2021 06:33:27 70.11, 78.05 47.36 2.69 41
10 06/06/2021 07:23:28 -69.99,-114.45 132.77 06/06/2021 07:22:57 -70.00,-114.47 132.75 1.59 31
11 06/08/2021 21:59:11 -70.94, 25.18 132.01 06/08/2021 22:00:18 -70.82, 27.35 132.19 80.19 67
12 06/08/2021 22:49:40 70.05,-166.10 47.06 06/08/2021 22:49:57 70.06,-166.14 47.07 1.81 17
13 06/08/2021 23:40:22 -69.95, 1.38 133.05 06/08/2021 23:39:27 -69.96, 1.35 133.04 1.20 55
14 06/11/2021 14:15:51 -70.12, 142.26 133.06 06/11/2021 14:17:01 -70.12, 142.18 133.07 2.79 70
15 06/11/2021 15:06:35 70.02, -50.28 46.83 06/11/2021 15:06:28 70.01, -50.33 46.82 2.27 7
16 06/11/2021 15:57:13 -69.70, 117.51 133.50 06/11/2021 15:56:01 -69.74, 116.93 133.44 22.69 72



Historial Predications of SNOs between NOAA-20 and LANDSAT-8
